Grand Forks, ND

1:32 AM CST on December 12, 2017 (GMT -0600)
Grand Forks International

Weather History for KGFK - May, 2013

Change the Weather History Date:

Thursday, May 9, 2013

  Actual Average Record
Temperature  
Mean Temperature 48 °F 52 °F  
Max Temperature 63 °F 66 °F 90 °F (1976)
Min Temperature 33 °F 39 °F 20 °F (1945)
Degree Days  
Heating Degree Days 17 13  
Month to date heating degree days 175 129  
Since 1 July heating degree days 9727 9207  
Cooling Degree Days 0 0  
Month to date cooling degree days 0 0  
Year to date cooling degree days 0 1  
Moisture  
Dew Point 27 °F    
Average Humidity 48    
Maximum Humidity 82    
Minimum Humidity 14    
Precipitation  
Precipitation 0.00 in 0.09 in 0.95 in (1995)
Month to date precipitation 0.00 0.64  
Year to date precipitation 3.38 3.68  
Snow  
Snow 0.00 in 0.00 in T in (2002)
Month to date snowfall 0.0 0.1  
Since 1 July snowfall 50.2 47.4  
Snow Depth 0.00 in    
Sea Level Pressure  
Sea Level Pressure 30.19 in    
Wind  
Wind Speed 13 mph (NNE)    
Max Wind Speed 23 mph    
Max Gust Speed 28 mph    
Visibility 10 miles    
Events      
T = Trace of Precipitation, MM = Missing Value Source: NWS Daily Summary

Daily Weather History Graph

Daily Weather History Graph

Search for Another Location

Airport or City:

Trip Planner

Search our weather history database for the weather conditions in past years. The results will help you decide how hot, cold, wet, or windy it might be!

Date:

Astronomy

May. 09, 2013 Rise Set
Actual Time 5:57 AM CDT 8:53 PM CDT
Civil Twilight 5:21 AM CDT 9:29 PM CDT
Nautical Twilight 4:35 AM CDT 10:15 PM CDT
Astronomical Twilight 3:40 AM CDT 11:12 PM CDT
Moon 5:45 AM CDT (5/9) 8:49 PM CDT (5/9)
Length of Visible Light 16h 07m
Length of Day
14h 55m
Waning Crescent, 0% of the Moon is Illuminated
May 9
Waning Crescent
May 9
New
May 17
First Quarter
May 24
Full
May 31
Last Quarter

Hourly Weather History & Observations

Time (CDT) Temp. Windchill Dew Point Humidity Pressure Visibility Wind Dir Wind Speed Gust Speed Precip Events Conditions
12:53 AM 43.0 °F 35.4 °F 30.0 °F 60% 30.16 in 10.0 mi North 16.1 mph - N/A   Clear
1:53 AM 39.0 °F 31.8 °F 30.0 °F 70% 30.17 in 10.0 mi NNW 11.5 mph - N/A   Clear
2:53 AM 37.0 °F 28.1 °F 28.9 °F 73% 30.17 in 10.0 mi NNW 15.0 mph - N/A   Clear
3:53 AM 35.1 °F 26.4 °F 28.9 °F 78% 30.18 in 10.0 mi NNW 12.7 mph - N/A   Clear
4:53 AM 34.0 °F 24.2 °F 28.0 °F 79% 30.19 in 10.0 mi NNW 15.0 mph - N/A   Clear
5:53 AM 33.1 °F 24.4 °F 27.0 °F 78% 30.21 in 10.0 mi North 11.5 mph - N/A   Partly Cloudy
6:53 AM 34.0 °F 25.0 °F 28.0 °F 79% 30.23 in 10.0 mi North 12.7 mph - N/A   Partly Cloudy
7:53 AM 39.9 °F 31.8 °F 28.0 °F 63% 30.24 in 10.0 mi North 15.0 mph - N/A   Clear
8:53 AM 44.1 °F 37.1 °F 30.0 °F 58% 30.25 in 10.0 mi North 15.0 mph - N/A   Clear
9:53 AM 48.9 °F - 32.0 °F 52% 30.24 in 10.0 mi NNE 13.8 mph - N/A   Clear
10:53 AM 55.0 °F - 27.0 °F 34% 30.24 in 10.0 mi NE 18.4 mph 26.5 mph N/A   Clear
11:53 AM 57.2 °F - 26.6 °F 31% 30.22 in 10.0 mi NE 18.4 mph 23.0 mph N/A   Clear
12:53 PM 59.0 °F - 27.0 °F 29% 30.23 in 10.0 mi NE 17.3 mph 25.3 mph N/A   Clear
1:53 PM 60.1 °F - 28.0 °F 30% 30.21 in 10.0 mi NE 18.4 mph 25.3 mph N/A   Clear
2:53 PM 60.8 °F - 26.6 °F 27% 30.18 in 10.0 mi NE 15.0 mph 23.0 mph N/A   Clear
3:53 PM 62.1 °F - 25.0 °F 24% 30.18 in 10.0 mi NNE 21.9 mph - N/A   Clear
4:53 PM 63.0 °F - 23.0 °F 22% 30.16 in 10.0 mi NE 17.3 mph 23.0 mph N/A   Clear
5:53 PM 62.1 °F - 14.0 °F 15% 30.16 in 10.0 mi NE 17.3 mph - N/A   Clear
6:53 PM 60.8 °F - 17.6 °F 19% 30.13 in 10.0 mi NE 10.4 mph - N/A   Clear
7:53 PM 57.9 °F - 24.1 °F 27% 30.15 in 10.0 mi NNE 10.4 mph - N/A   Clear
8:53 PM 51.1 °F - 28.9 °F 43% 30.16 in 10.0 mi NNE 9.2 mph - N/A   Clear
9:53 PM 46.0 °F 41.9 °F 30.0 °F 54% 30.18 in 10.0 mi NNE 8.1 mph - N/A   Clear
10:53 PM 46.9 °F - 30.0 °F 52% 30.18 in 10.0 mi NE 10.4 mph - N/A   Clear
11:53 PM 46.4 °F 42.9 °F 28.4 °F 50% 30.16 in 10.0 mi NE 6.9 mph - N/A   Clear